Weather History for KGRR - February, 2014

Change the Weather History Date:

Thursday, February 6, 2014

  Actual Average Record
Temperature  
Mean Temperature 15 °F 25 °F  
Max Temperature 18 °F 32 °F 54 °F (1938)
Min Temperature 11 °F 19 °F -9 °F (1977)
Degree Days  
Heating Degree Days 50 40  
Month to date heating degree days 292 240  
Since 1 July heating degree days 4257 3947  
Cooling Degree Days 0 0  
Month to date cooling degree days 0 0  
Year to date cooling degree days 0 0  
Moisture  
Dew Point 8 °F    
Average Humidity 78    
Maximum Humidity 88    
Minimum Humidity 67    
Precipitation  
Precipitation 0.08 in 0.05 in 0.71 in (2008)
Month to date precipitation 0.72 0.33  
Year to date precipitation 4.13 2.42  
Snow  
Snow 2.40 in 0.60 in 8.10 in (2008)
Month to date snowfall 10.8 3.6  
Since 1 July snowfall 89.6 53.6  
Snow Depth 21.00 in    
Sea Level Pressure  
Sea Level Pressure 30.31 in    
Wind  
Wind Speed 12 mph (WSW)    
Max Wind Speed 24 mph    
Max Gust Speed 29 mph    
Visibility 3 miles    
Events Snow    
T = Trace of Precipitation, MM = Missing Value Source: NWS Daily Summary

Daily Weather History Graph

Daily Weather History Graph

Search for Another Location

Airport or City:

Trip Planner

Search our weather history database for the weather conditions in past years. The results will help you decide how hot, cold, wet, or windy it might be!

Date:

Astronomy

Feb. 06, 2014 Rise Set
Actual Time 7:51 AM EST 6:01 PM EST
Civil Twilight 7:21 AM EST 6:31 PM EST
Nautical Twilight 6:47 AM EST 7:05 PM EST
Astronomical Twilight 6:14 AM EST 7:38 PM EST
Moon 11:32 AM EST (2/6) 1:06 AM EST (2/6)
Length of Visible Light 11h 09m
Length of Day
10h 10m
Waxing Crescent, 49% of the Moon is Illuminated
Feb 6
Waxing Crescent
Feb 6
First Quarter
Feb 14
Full
Feb 22
Last Quarter
Mar 1
New

Hourly Weather History & Observations

Time (EST) Temp. Windchill Dew Point Humidity Pressure Visibility Wind Dir Wind Speed Gust Speed Precip Events Conditions
12:53 AM 15.1 °F 9.4 °F 7.0 °F 70% 30.40 in 8.0 mi WNW 3.5 mph - 0.00 in Snow Light Snow
1:53 AM 14.0 °F 6.5 °F 7.0 °F 74% 30.38 in 8.0 mi SSW 4.6 mph - 0.00 in Snow Light Snow
2:53 AM 14.0 °F 5.1 °F 8.1 °F 77% 30.37 in 10.0 mi SSW 5.8 mph - 0.00 in   Overcast
3:53 AM 14.0 °F 5.1 °F 9.0 °F 80% 30.36 in 2.5 mi SW 5.8 mph - 0.00 in Snow Light Snow
4:10 AM 14.0 °F 5.1 °F 9.0 °F 80% 30.31 in 3.0 mi SSW 5.8 mph - 0.00 in Snow Light Snow
4:53 AM 14.0 °F 3.9 °F 9.0 °F 80% 30.36 in 8.0 mi SSW 6.9 mph - 0.00 in Snow Light Snow
5:11 AM 14.0 °F 3.9 °F 10.0 °F 84% 30.31 in 6.0 mi SSW 6.9 mph - 0.00 in Snow Light Snow
5:53 AM 15.1 °F 4.2 °F 10.0 °F 80% 30.36 in 7.0 mi SW 8.1 mph - 0.00 in Snow Light Snow
6:53 AM 16.0 °F 5.3 °F 10.9 °F 81% 30.35 in 4.0 mi WSW 8.1 mph - 0.00 in Snow Light Snow
7:53 AM 16.0 °F 6.3 °F 10.9 °F 81% 30.34 in 4.0 mi SW 6.9 mph - 0.00 in Snow Light Snow
8:12 AM 16.0 °F 6.3 °F 10.9 °F 81% 30.29 in 2.0 mi WSW 6.9 mph - 0.00 in Snow Light Snow
8:48 AM 15.8 °F 5.1 °F 10.4 °F 79% 30.29 in 1.2 mi WSW 8.1 mph - 0.00 in Snow Light Snow
8:53 AM 16.0 °F 5.3 °F 12.0 °F 84% 30.34 in 1.2 mi WSW 8.1 mph - 0.00 in Snow Light Snow
9:53 AM 17.1 °F 4.3 °F 12.9 °F 84% 30.34 in 1.0 mi WSW 11.5 mph - 0.04 in Snow Light Snow
10:53 AM 17.1 °F 4.3 °F 10.9 °F 77% 30.34 in 1.8 mi West 11.5 mph - 0.10 in Snow Light Snow
11:53 AM 16.0 °F 0.1 °F 9.0 °F 74% 30.34 in 1.5 mi West 17.3 mph - 0.04 in Snow Light Snow
12:53 PM 16.0 °F 0.1 °F 9.0 °F 74% 30.32 in 1.8 mi West 17.3 mph - 0.03 in Snow Light Snow
1:40 PM 15.1 °F -0.6 °F 8.1 °F 74% 30.26 in 0.8 mi West 16.1 mph - 0.00 in Snow Light Snow
1:53 PM 14.0 °F -3.4 °F 7.0 °F 74% 30.32 in 0.8 mi West 19.6 mph - 0.00 in Snow Light Snow
2:11 PM 14.0 °F -4.7 °F 6.1 °F 71% 30.26 in 2.5 mi WSW 23.0 mph 28.8 mph 0.00 in Snow Light Snow
2:34 PM 12.9 °F -4.4 °F 6.1 °F 74% 30.25 in 2.0 mi WSW 18.4 mph - 0.00 in Snow Light Snow
2:43 PM 12.9 °F -4.9 °F 7.0 °F 77% 30.25 in 0.8 mi WSW 19.6 mph - 0.00 in Snow Light Snow
2:53 PM 12.9 °F -5.7 °F 6.1 °F 74% 30.30 in 0.8 mi WSW 21.9 mph 28.8 mph 0.00 in Snow Light Snow
3:53 PM 12.0 °F -4.5 °F 3.9 °F 70% 30.31 in 0.8 mi WSW 16.1 mph - 0.00 in Snow Light Snow
4:20 PM 12.0 °F -5.1 °F 3.0 °F 67% 30.26 in 1.5 mi WSW 17.3 mph - 0.00 in Snow Light Snow
4:39 PM 10.9 °F -6.5 °F 3.9 °F 73% 30.26 in 2.5 mi West 17.3 mph - 0.00 in Snow Light Snow
4:53 PM 10.9 °F -5.9 °F 5.0 °F 77% 30.30 in 2.0 mi WSW 16.1 mph - 0.00 in Snow Light Snow
5:45 PM 10.9 °F -4.7 °F 6.1 °F 81% 30.25 in 1.2 mi WSW 13.8 mph - 0.00 in Snow Light Snow
5:53 PM 10.9 °F -4.7 °F 6.1 °F 81% 30.30 in 1.2 mi WSW 13.8 mph - 0.00 in Snow Light Snow
6:53 PM 10.9 °F -3.4 °F 6.1 °F 81% 30.30 in 1.8 mi SW 11.5 mph - 0.00 in Snow Light Snow
7:53 PM 12.0 °F -2.0 °F 6.1 °F 77% 30.30 in 1.5 mi WSW 11.5 mph - 0.00 in Snow Light Snow
8:07 PM 10.9 °F -2.6 °F 7.0 °F 84% 30.25 in 1.0 mi WSW 10.4 mph - 0.00 in Snow Light Snow
8:26 PM 12.0 °F -3.4 °F 6.1 °F 77% 30.25 in 2.0 mi WSW 13.8 mph - 0.00 in Snow Light Snow
8:53 PM 12.0 °F -2.0 °F 6.1 °F 77% 30.30 in 2.0 mi WSW 11.5 mph - 0.00 in Snow Light Snow
9:53 PM 12.0 °F -5.1 °F 6.1 °F 77% 30.31 in 2.0 mi WSW 17.3 mph - 0.00 in Snow Light Snow
10:15 PM 12.0 °F -3.4 °F 6.1 °F 77% 30.26 in 1.2 mi WSW 13.8 mph - 0.00 in Snow Light Snow
10:40 PM 12.0 °F -4.0 °F 6.1 °F 77% 30.26 in 2.0 mi WSW 15.0 mph - 0.00 in Snow Light Snow
10:53 PM 12.0 °F -2.0 °F 6.1 °F 77% 30.31 in 2.5 mi WSW 11.5 mph - 0.00 in Snow Light Snow
11:03 PM 10.9 °F -4.1 °F 7.0 °F 84% 30.26 in 1.0 mi WSW 12.7 mph - 0.00 in Snow Light Snow
11:42 PM 10.9 °F -7.0 °F 5.0 °F 77% 30.26 in 2.0 mi WSW 18.4 mph - 0.01 in Snow Light Snow
11:53 PM 10.9 °F -5.4 °F 6.1 °F 81% 30.31 in 2.5 mi WSW 15.0 mph - 0.01 in Snow Light Snow